« Back
NWS Peachtree City, Ga » Text Product » GA Regional Weather Roundup


Printer-friendly Version
Current Version              Previous Versions:   1  2  3  4  5  6  7  8  9  

Regional Weather Roundup

943
ASUS42 KFFC 281803
RWRGA
WEATHER ROUNDUP FOR GEORGIA
NATIONAL WEATHER SERVICE PEACHTREE CITY GA
100 PM EST FRI NOV 28 2014

NOTE: "FAIR" INDICATES FEW OR NO CLOUDS BELOW 12,000 FEET WITH NO
SIGNIFICANT WEATHER AND/OR OBSTRUCTIONS TO VISIBILITY.

* = USE WITH CAUTION. THE STATIONS MARKED WITH AN ASTERISK MAY NOT
REPORT WEATHER SUCH AS PRECIPITATION, FOG, OR THUNDER AND ARE NOT
QUALITY CONTROLLED BY NWS.

THE REMARK "TC" DENOTES TEMPERATURE READING IN DEGREES CELSIUS.

GAZ001>058-281900-
NORTH GEORGIA

CITY           SKY/WX    TMP DP  RH WIND       PRES   REMARKS
ATLANTA        SUNNY     46  19  34 NW9       30.35F
6HR MIN TEMP:  28; 6HR MAX TEMP:  46;

ATHENS         SUNNY     45  19  35 CALM      30.33F
6HR MIN TEMP:  26; 6HR MAX TEMP:  46;

CHAMBLEE       SUNNY     43  17  35 W5        30.34F
6HR MIN TEMP:  26; 6HR MAX TEMP:  45;

PEACHTREE CITY SUNNY     46  21  37 N7        30.36F
6HR MIN TEMP:  28; 6HR MAX TEMP:  46;

ROME           SUNNY     43  19  38 SE3       30.37F
6HR MIN TEMP:  24; 6HR MAX TEMP:  43; 6HR PCP: TRACE;

WEST ATLANTA   SUNNY     44  17  33 W9        30.36F
6HR MIN TEMP:  27; 6HR MAX TEMP:  44;

GAINESVILLE    SUNNY     43  20  39 MISG      30.33F
6HR MIN TEMP:  28; 6HR MAX TEMP:  44;

CARTERSVILLE   SUNNY     41  19  41 CALM      30.37F
6HR MIN TEMP:  25; 6HR MAX TEMP:  42;



CITY           SKY/WX    TMP DP  RH WIND       PRES   REMARKS
DALTON*        SUNNY     39  21  48 NW3       30.38F
LAWRENCEVILLE* SUNNY     43  18  36 W5        30.33F
MARIETTA       MOSUNNY   44  19  35 NW6       30.34F
KENNESAW*      SUNNY     39  18  41 W8        30.37F WCI  34
$$

GAZ059>098-102>109-281900-
CENTRAL GEORGIA

CITY           SKY/WX    TMP DP  RH WIND       PRES   REMARKS
AUGUSTA-BUSH   SUNNY     48  21  34 VRB3      30.36F
6HR MIN TEMP:  25; 6HR MAX TEMP:  48;

AUGUSTA-DANIEL SUNNY     47  22  37 E6        30.35F
6HR MIN TEMP:  32; 6HR MAX TEMP:  48;

COLUMBUS       SUNNY     47  22  37 CALM      30.37F
6HR MIN TEMP:  31; 6HR MAX TEMP:  47;

MACON          SUNNY     46  24  42 SE3       30.36F
6HR MIN TEMP:  25; 6HR MAX TEMP:  46;

ROBINS AFB     SUNNY     47  24  39 VRB3      30.36F


CITY           SKY/WX    TMP DP  RH WIND       PRES   REMARKS
LAGRANGE*      SUNNY     48  24  38 CALM      30.36F
SYLVANIA*      SUNNY     50  29  44 N5        30.36F
MILLEDGEVILLE* SUNNY     46  32  57 NE3       30.35F
$$

GAZ099>101-110>166-281900-
SOUTH GEORGIA

CITY           SKY/WX    TMP DP  RH WIND       PRES   REMARKS
SAVANNAH       SUNNY     50  24  36 NE5       30.36F
6HR MIN TEMP:  35; 6HR MAX TEMP:  51;

VALDOSTA       SUNNY     51  28  41 VRB3      30.35F
6HR MIN TEMP:  34; 6HR MAX TEMP:  51;

ALMA           SUNNY     49  27  42 VRB5      30.35F
6HR MIN TEMP:  33; 6HR MAX TEMP:  50;

ST SIMONS      SUNNY     50  31  48 NE10      30.36F
6HR MIN TEMP:  36; 6HR MAX TEMP:  50;

FT STEWART     SUNNY     48  26  40 VRB1      30.34F
ALBANY         SUNNY     51  24  34 VRB5      30.39F
HUNTER AFB     SUNNY     50  27  40 VRB5      30.34F
MOODY AFB      SUNNY     50  27  41 N6        30.35F
BRUNSWICK      SUNNY     50  30  46 N7        30.37F


CITY           SKY/WX    TMP DP  RH WIND       PRES   REMARKS
BAINBRIDGE*    SUNNY     54  32  43 N7        30.37F
MOULTRIE*      SUNNY     46  30  53 CALM      30.37F
VIDALIA*       SUNNY     46  30  53 CALM      30.36F
WAYCROSS*      SUNNY     52  32  46 NE9       30.36F
DOUGLAS*       SUNNY     50  28  43 CALM      30.37F
$$



USA.gov is the U.S. government's official web portal to all federal, state and local government web resources and services.